TimeEDT,TemperatureF,Dew PointF,Humidity,Sea Level PressureIn,VisibilityMPH,Wind Direction,Wind SpeedMPH,Gust SpeedMPH,PrecipitationIn,Events,Conditions,WindDirDegrees,DateUTC
12:58 AM,66.9,62.1,84,29.93,10.0,SSE,9.2,-,0.00,,Clear,160,2013-03-12 04:58:00
1:58 AM,66.9,62.1,84,29.91,10.0,South,10.4,-,N/A,,Clear,180,2013-03-12 05:58:00
2:58 AM,68.0,60.1,76,29.89,10.0,South,13.8,-,N/A,,Scattered Clouds,180,2013-03-12 06:58:00
3:58 AM,68.0,60.1,76,29.87,10.0,South,15.0,21.9,0.00,Rain,Light Rain,180,2013-03-12 07:58:00
4:58 AM,69.1,60.1,73,29.88,10.0,South,12.7,-,0.00,,Overcast,190,2013-03-12 08:58:00
5:58 AM,68.0,60.1,76,29.88,10.0,South,11.5,-,0.00,,Overcast,180,2013-03-12 09:58:00
6:58 AM,68.0,60.1,76,29.89,10.0,South,13.8,-,N/A,,Overcast,190,2013-03-12 10:58:00
7:58 AM,66.0,62.1,87,29.90,4.0,South,9.2,-,0.02,Rain,Light Rain,190,2013-03-12 11:58:00
8:58 AM,64.9,63.0,93,29.91,5.0,South,6.9,-,0.00,Rain,Light Rain,180,2013-03-12 12:58:00
9:10 AM,64.4,62.6,94,29.91,5.0,South,6.9,-,N/A,,Overcast,180,2013-03-12 13:10:00
9:53 AM,64.4,62.6,94,29.92,5.0,South,10.4,-,0.00,Rain,Light Rain,180,2013-03-12 13:53:00
9:58 AM,64.9,63.0,93,29.92,5.0,South,11.5,-,0.00,Rain,Light Rain,180,2013-03-12 13:58:00
10:10 AM,64.4,62.6,94,29.92,2.0,South,9.2,-,0.01,Rain,Light Rain,190,2013-03-12 14:10:00
10:37 AM,64.4,64.4,100,29.93,2.0,SSW,5.8,-,0.01,Rain,Light Rain,210,2013-03-12 14:37:00
10:58 AM,66.0,64.0,93,29.94,2.0,SSW,8.1,-,0.01,,Overcast,200,2013-03-12 14:58:00
11:02 AM,66.2,64.4,94,29.93,4.0,South,6.9,-,N/A,,Overcast,190,2013-03-12 15:02:00
11:06 AM,66.2,64.4,94,29.93,4.0,South,10.4,-,N/A,,Overcast,190,2013-03-12 15:06:00
11:46 AM,66.2,64.4,94,29.94,4.0,SSW,12.7,-,N/A,,Overcast,200,2013-03-12 15:46:00
11:58 AM,66.9,64.0,90,29.94,4.0,SSW,9.2,-,N/A,,Overcast,210,2013-03-12 15:58:00
12:58 PM,68.0,66.0,93,29.94,3.0,SW,9.2,-,N/A,,Overcast,220,2013-03-12 16:58:00
1:58 PM,70.0,66.0,87,29.91,5.0,SW,9.2,-,0.00,,Overcast,230,2013-03-12 17:58:00
2:54 PM,71.6,64.4,78,29.89,10.0,WSW,5.8,16.1,N/A,,Overcast,250,2013-03-12 18:54:00
2:58 PM,72.0,64.9,78,29.89,10.0,WSW,9.2,16.1,N/A,,Overcast,250,2013-03-12 18:58:00
3:02 PM,71.6,64.4,78,29.89,10.0,WSW,10.4,-,N/A,,Overcast,240,2013-03-12 19:02:00
3:12 PM,73.4,64.4,73,29.88,10.0,Variable,6.9,-,N/A,,Overcast,0,2013-03-12 19:12:00
3:58 PM,72.0,64.0,76,29.88,10.0,West,11.5,17.3,N/A,,Overcast,280,2013-03-12 19:58:00
4:58 PM,68.0,62.1,81,29.90,10.0,West,9.2,-,N/A,,Mostly Cloudy,280,2013-03-12 20:58:00
5:02 PM,68.0,62.6,83,29.90,10.0,West,13.8,18.4,N/A,,Overcast,280,2013-03-12 21:02:00
5:08 PM,68.0,60.8,78,29.90,10.0,West,12.7,18.4,N/A,,Overcast,280,2013-03-12 21:08:00
5:58 PM,69.1,61.0,75,29.91,10.0,WNW,9.2,-,N/A,,Partly Cloudy,290,2013-03-12 21:58:00
6:16 PM,69.8,60.8,73,29.92,10.0,West,5.8,-,N/A,,Mostly Cloudy,280,2013-03-12 22:16:00
6:35 PM,68.0,60.8,78,29.93,10.0,NW,9.2,-,N/A,,Scattered Clouds,310,2013-03-12 22:35:00
6:58 PM,68.0,57.0,68,29.94,10.0,WNW,9.2,-,N/A,,Clear,290,2013-03-12 22:58:00
7:58 PM,64.0,57.0,78,29.96,10.0,WNW,5.8,-,N/A,,Clear,290,2013-03-12 23:58:00
8:58 PM,61.0,46.9,60,29.99,10.0,WNW,8.1,-,N/A,,Clear,300,2013-03-13 00:58:00
9:58 PM,59.0,46.0,62,30.01,10.0,NW,10.4,-,N/A,,Clear,310,2013-03-13 01:58:00
10:58 PM,55.9,46.0,69,30.03,10.0,NW,8.1,-,N/A,,Clear,310,2013-03-13 02:58:00
11:58 PM,55.0,46.0,72,30.04,10.0,West,5.8,-,N/A,,Clear,280,2013-03-13 03:58:00